Time,B instrument,Bx,By,Bz,sigma B,Ion instrument,Status,Tp_par,Tp_perp,carrot,r_sun,clat,clong,earth_he_angle,n_p,vp_x,vp_y,vp_z,vth_p_par,vth_p_perp
1980-08-05 00:01:57,1,-1.25,8.95,2.75,0.415331,1,1,33163.0,37504.7,1697,0.92618978,2.1755543,65.434479,105.58292,4.60285,367.932,38.704,12.1418,23.3983,24.8829
1980-08-05 00:04:39,1,-1.6,8.7,4.1,2.22045e-16,1,1,40473.7,37821.8,1697,0.9261989,2.1753569,65.410706,105.58257,4.67388,366.35,34.1541,19.1834,25.849,24.9878
1980-08-05 00:07:21,1,-0.9,8.43333,5.26667,0.641179,1,1,40094.8,46789.5,1697,0.92620802,2.1751595,65.386902,105.58221,4.19084,372.786,35.1653,33.7807,25.7278,27.7928
1980-08-05 00:10:03,1,-1.23333,8.43333,5.26667,0.282843,1,1,49392.9,24763.2,1697,0.9262172,2.174963,65.359192,105.58185,3.52052,372.453,30.5296,31.643,28.5555,20.2191
1980-08-05 00:12:45,1,-2.06667,8.56667,3.83333,0.316228,1,1,27646.2,35384.9,1697,0.92622328,2.1748314,65.335541,105.58162,4.70976,360.408,36.8568,16.8846,21.3637,24.1694
1980-08-05 00:15:27,1,0.666667,8.9,3.76667,0.48074,1,1,39160.0,37668.3,1697,0.9262324,2.174634,65.311737,105.58127,4.40754,379.075,35.8362,15.6095,25.4261,24.9371
1980-08-05 00:18:09,1,-0.6,8.8,4.2,0.270801,1,1,41205.9,41980.0,1697,0.92624152,2.1744366,65.284058,105.58092,4.08259,372.671,38.4378,21.082,26.0818,26.3257
1980-08-05 00:20:51,1,-2.26667,8.5,4.5,0.262467,1,1,31418.8,37663.0,1697,0.92624766,2.1743059,65.260376,105.58067,3.93117,347.359,31.0768,26.9011,22.7747,24.9353
1980-08-05 00:23:33,1,-0.933333,8.93333,4.06667,0.282843,1,1,33527.5,36880.6,1697,0.92625678,2.1741085,65.232666,105.58032,4.16014,366.08,37.9073,18.663,23.5266,24.675
1980-08-05 00:26:15,1,-1.0,8.63333,4.6,0.249444,1,1,37747.0,36294.7,1697,0.9262659,2.1739111,65.208893,105.57997,4.66115,362.668,33.9916,28.3495,24.9631,24.4782
1980-08-05 00:28:57,1,-1.46667,8.73333,4.4,0.24037,1,1,29598.2,42841.4,1697,0.92627198,2.1737795,65.185211,105.57973,4.18359,359.065,35.2575,25.0544,22.105,26.5944
1980-08-05 00:31:39,1,-1.8,8.46667,5.03333,0.323179,1,1,36077.0,42605.0,1697,0.92628115,2.173583,65.157501,105.57938,4.35427,360.036,31.6149,31.9385,24.4047,26.5209
1980-08-05 00:34:21,1,-0.833333,8.63333,5.4,0.210819,1,1,33570.1,39236.3,1697,0.92629027,2.1733856,65.133728,105.57903,4.11958,365.982,37.8159,34.5012,23.5415,25.4508
1980-08-05 00:37:03,1,-1.4,8.46667,5.23333,0.575423,1,1,35383.8,38530.9,1697,0.92629939,2.1731882,65.109924,105.57867,4.13353,355.156,33.8004,33.8561,24.1691,25.221
1980-08-05 00:39:45,1,-3.6,7.36667,6.13333,0.253859,1,1,27479.5,47625.5,1697,0.92630547,2.1730566,65.082367,105.57845,4.38093,345.578,27.0054,41.0601,21.2992,28.04
1980-08-05 00:42:27,1,-0.475,9.025,3.7,0.297909,1,1,44182.3,42998.2,1697,0.92631465,2.1728601,65.058563,105.57808,4.23968,365.493,36.7846,24.0453,27.0074,26.643
1980-08-05 00:45:09,1,-1.2,8.8,4.5,0.173205,1,1,34805.1,42168.0,1697,0.92632377,2.1726627,65.03476,105.57773,4.62734,364.342,40.0481,24.4288,23.9706,26.3845
1980-08-05 00:47:51,1,-1.8,8.03333,5.73333,0.947511,1,1,48749.1,32538.0,1697,0.92632985,2.1725311,65.007202,105.5775,3.63387,373.679,34.7713,35.5241,28.3688,23.1768
1980-08-05 00:50:33,1,-2.1,8.13333,4.9,0.249444,1,1,36745.3,47664.7,1697,0.92633903,2.1723347,64.983398,105.57715,4.54053,357.041,37.649,25.7176,24.6297,28.0515
1980-08-05 00:53:15,1,-1.66667,8.16667,4.66667,0.270801,1,1,39306.0,44066.1,1697,0.92634815,2.1721373,64.959625,105.5768,4.09554,356.241,31.2331,31.6941,25.4734,26.9718
1980-08-05 00:55:57,1,-2.16667,8.26667,4.36667,0.305505,1,1,39755.2,36957.3,1697,0.92635423,2.1720057,64.932037,105.57655,3.99572,359.903,38.0309,23.1322,25.6186,24.7006
1980-08-05 00:58:39,1,-2.16667,7.96667,4.5,0.312694,1,1,39052.8,39312.4,1697,0.92636335,2.1718082,64.908234,105.5762,4.47356,356.106,34.3504,24.2779,25.3912,25.4755
1980-08-05 01:01:21,1,-1.3,8.35,4.2,0.193649,1,1,36662.4,56794.2,1697,0.92637253,2.1716118,64.88446,105.57585,4.48322,359.801,37.0288,26.3873,24.6019,30.6203
1980-08-05 01:04:03,1,-1.8,8.45,4.1,0.25,1,1,45882.8,48725.6,1697,0.92638165,2.1714144,64.85675,105.5755,4.38967,356.751,32.1612,26.4409,27.5222,28.362
1980-08-05 01:06:45,1,-1.975,8.15,4.1,0.24367,1,1,45396.8,62797.6,1697,0.92638773,2.1712828,64.833069,105.57526,4.69521,354.968,34.0005,22.4122,27.376,32.198
1980-08-05 01:09:27,1,-2.125,8.175,4.2,0.297909,1,1,43817.7,55457.0,1697,0.92639685,2.1710854,64.809296,105.57491,4.73032,354.606,32.9646,21.1168,26.8957,30.2577
1980-08-05 01:12:09,1,-3.3,7.3,4.2,0.305505,1,1,35308.6,81950.9,1697,0.92640597,2.1708889,64.781586,105.57455,4.98372,344.543,25.8685,31.1205,24.1434,36.7819
1980-08-05 01:14:51,1,-3.36667,3.93333,5.7,0.380058,1,1,55243.7,89747.2,1697,0.92641205,2.1707573,64.757935,105.57433,3.8622,337.929,-2.13014,43.6673,30.1995,38.4918
1980-08-05 01:17:33,1,-3.13333,4.0,4.63333,0.42947,1,1,350796.0,142691.0,1697,0.92642117,2.1705599,64.730225,105.57396,9.4813,362.778,-22.5915,19.1602,76.1001,48.5351
1980-08-05 01:20:15,-1,nan,nan,nan,nan,1,4,nan,nan,1697,0.92643028,2.1703634,64.706421,105.57361,nan,nan,nan,nan,nan,nan
1980-08-05 01:22:57,1,-3.53333,4.73333,5.7,0.210819,1,1,76022.1,127153.0,1697,0.92643636,2.1702318,64.68277,105.57338,6.42404,346.301,-0.52278,37.4606,35.4265,45.8164
1980-08-05 01:25:39,1,-2.9,5.13333,4.23333,0.581187,1,1,261678.0,150301.0,1697,0.92644548,2.1700344,64.65506,105.57303,9.90422,358.745,-8.42847,20.4325,65.7266,49.8125
1980-08-05 01:28:21,1,0.133333,5.8,2.7,0.359011,1,1,96120.0,161550.0,1697,0.9264546,2.169837,64.631256,105.57266,5.91937,373.675,7.35845,3.48879,39.835,51.6429
1980-08-05 01:31:03,1,-0.9,5.33333,1.26667,0.839312,1,1,362245.0,183983.0,1697,0.92646372,2.1696405,64.607483,105.57231,10.3299,371.551,-16.3374,-3.34895,77.332,55.1121
1980-08-05 01:33:45,1,-0.025,5.625,-0.1,0.594769,1,1,280910.0,164028.0,1697,0.9264698,2.1695089,64.579895,105.57208,11.666,377.659,-25.6829,-4.33942,68.0991,52.0376
1980-08-05 01:36:27,1,2.2,-1.2,-0.866667,0.46428,1,1,189735.0,188565.0,1697,0.92647892,2.1693115,64.556122,105.57173,13.029,380.726,-33.9803,4.84848,55.967,55.7941
1980-08-05 01:39:09,1,2.76667,-0.833333,-1.53333,0.739369,1,1,182680.0,156954.0,1697,0.92648804,2.1691141,64.532318,105.57138,13.0718,381.899,-32.2988,7.31044,54.9165,50.903
1980-08-05 01:41:51,1,2.5,0.5,-1.9,2.22045e-16,1,1,177380.0,162120.0,1697,0.92649412,2.1689835,64.50473,105.57114,12.9574,380.046,-35.2081,3.09555,54.1141,51.7341
1980-08-05 01:44:33,1,2.7,1.6,-2.45,0.327872,1,1,169065.0,122582.0,1697,0.92650324,2.168786,64.480957,105.57079,12.1768,382.958,-34.1526,5.89941,52.8305,44.9854
1980-08-05 01:47:15,1,3.25,0.525,-2.1,0.298957,1,1,162101.0,138584.0,1697,0.92651236,2.1685886,64.457153,105.57043,12.592,378.289,-31.99,8.99971,51.7309,47.8315
1980-08-05 01:49:57,1,3.15,0.65,-2.7,0.424264,1,1,158151.0,151137.0,1697,0.92651844,2.168457,64.429565,105.57019,12.831,381.496,-34.4504,8.92477,51.0968,49.9509
1980-08-05 01:52:39,1,2.15,1.375,-1.6,0.727582,1,1,152503.0,160143.0,1697,0.92652756,2.1682606,64.405792,105.56984,13.0728,381.957,-33.3056,6.33629,50.1761,51.4175
1980-08-05 01:55:21,1,1.86667,0.1,1.3,0.537484,1,1,171875.0,193726.0,1697,0.92653668,2.1680632,64.381989,105.56949,14.3752,382.142,-32.9388,-0.593065,53.2678,56.5525
1980-08-05 01:58:03,1,1.9,1.23333,0.1,0.612826,1,1,165180.0,176148.0,1697,0.9265458,2.1678658,64.354309,105.56914,14.1974,384.202,-30.4609,-8.34743,52.22,53.9258
1980-08-05 02:00:45,1,0.125,1.325,2.3,1.9167,1,1,181506.0,182580.0,1697,0.92655194,2.1677351,64.330627,105.56891,13.8887,385.556,-37.8008,-2.39656,54.7399,54.9016
1980-08-05 02:03:27,-1,nan,nan,nan,nan,1,4,nan,nan,1697,0.926561,2.1675377,64.302917,105.56854,nan,nan,nan,nan,nan,nan
1980-08-05 02:06:09,1,1.3,-0.75,3.8,0.512348,1,1,191494.0,195442.0,1697,0.92657012,2.1673403,64.279144,105.56819,15.0953,376.831,-30.8154,6.76439,56.2257,56.8024
1980-08-05 02:08:51,-1,nan,nan,nan,nan,1,4,nan,nan,1697,0.9265762,2.1672096,64.255463,105.56796,nan,nan,nan,nan,nan,nan
1980-08-05 02:11:33,1,3.425,-0.35,1.825,0.579871,1,1,181925.0,205991.0,1697,0.92658532,2.1670122,64.227753,105.5676,13.9802,376.976,-29.0506,5.71264,54.8029,58.3152
1980-08-05 02:14:15,-1,nan,nan,nan,nan,1,4,nan,nan,1697,0.92659444,2.1668148,64.203979,105.56725,nan,nan,nan,nan,nan,nan
1980-08-05 02:16:57,1,4.5,-1.7,0.733333,0.274874,1,1,231270.0,178956.0,1697,0.92660046,2.1666842,64.180298,105.56702,14.7036,377.577,-33.0334,9.81605,61.7899,54.3539
1980-08-05 02:19:39,-1,nan,nan,nan,nan,1,4,nan,nan,1697,0.92660958,2.1664867,64.152588,105.56665,nan,nan,nan,nan,nan,nan
1980-08-05 02:22:21,1,4.9,-1.3,1.0,0.2,1,1,199869.0,199066.0,1697,0.9266187,2.1662893,64.128815,105.5663,14.4166,381.32,-34.2045,5.45453,57.4421,57.3266
1980-08-05 02:25:03,1,4.8,-1.6,1.15,0.320156,1,1,159107.0,207849.0,1697,0.92662781,2.1660929,64.105011,105.56595,13.1108,384.781,-33.7206,9.1948,51.251,58.5776
1980-08-05 02:30:27,1,2.55,-1.275,1.4,0.37333,1,1,190091.0,203968.0,1697,0.92664301,2.1657648,64.05365,105.56535,14.8662,371.427,-30.8244,11.0628,56.0195,58.0281
1980-08-05 02:33:09,1,1.0,-1.325,1.8,0.258602,1,1,203252.0,216168.0,1697,0.92665207,2.1655674,64.029846,105.565,16.0136,371.964,-28.5634,11.9585,57.9263,59.7385
1980-08-05 02:35:51,1,3.0,-1.325,1.4,0.178536,1,1,218226.0,217736.0,1697,0.92665815,2.1654358,64.002258,105.56476,15.9891,371.995,-27.5866,10.5306,60.0221,59.9547
1980-08-05 02:38:33,1,3.73333,-0.966667,0.966667,0.270801,1,1,201058.0,204545.0,1697,0.92666727,2.1652393,63.978485,105.56441,14.0324,371.669,-27.1529,9.26466,57.6127,58.1101
1980-08-05 02:41:15,1,4.53333,-0.933333,0.966667,0.316228,1,1,245084.0,187009.0,1697,0.92667639,2.1650419,63.954681,105.56406,14.4227,372.313,-29.7995,10.6632,63.6086,55.5634
1980-08-05 02:43:57,1,4.2,-0.825,0.3,0.178536,1,1,260347.0,212282.0,1697,0.92668247,2.1649103,63.927094,105.56381,15.3545,372.884,-27.9477,10.0898,65.5593,59.199
1980-08-05 02:46:39,1,3.7,-0.166667,0.233333,0.156347,1,1,230130.0,195676.0,1697,0.92669153,2.1647139,63.90332,105.56346,13.8747,376.533,-28.4321,11.4692,61.6374,56.8364
1980-08-05 02:49:21,1,4.26667,0.233333,-0.5,0.194365,1,1,213520.0,188473.0,1697,0.92670065,2.1645164,63.879517,105.56311,13.9343,376.774,-30.4389,11.0577,59.3714,55.7806
1980-08-05 02:52:03,1,3.6,-0.2,-0.6,2.77556e-17,1,1,219965.0,189121.0,1697,0.92670977,2.164319,63.851837,105.56276,13.7476,374.707,-30.5957,9.05179,60.2608,55.8764
1980-08-05 02:54:45,1,3.46667,1.03333,-0.333333,0.489898,1,1,205377.0,189277.0,1697,0.92671585,2.1641884,63.828156,105.56252,14.136,375.838,-31.8237,7.92254,58.2283,55.8994
1980-08-05 02:57:27,-1,nan,nan,nan,nan,1,4,nan,nan,1697,0.92672497,2.163991,63.800446,105.56216,nan,nan,nan,nan,nan,nan
1980-08-05 03:00:09,1,4.0,1.43333,0.2,0.262467,1,1,177499.0,150688.0,1697,0.92673409,2.1637945,63.776672,105.56181,12.9632,373.364,-32.2574,12.0056,54.1322,49.8766
1980-08-05 03:02:51,1,4.7,1.9,-0.5,0.270801,1,1,239989.0,161400.0,1697,0.92674011,2.1636629,63.752991,105.56157,12.9746,380.218,-32.2532,5.0997,62.9439,51.619
1980-08-05 03:05:33,1,3.725,2.0,-0.9,0.268095,1,1,205327.0,179618.0,1697,0.92674923,2.1634655,63.725281,105.56122,12.8842,381.435,-29.719,6.30263,58.2211,54.4544
1980-08-05 03:08:15,1,4.3,0.275,-1.0,0.268095,1,1,185817.0,176580.0,1697,0.92675829,2.163269,63.701508,105.56087,11.5217,380.751,-29.8302,5.4813,55.3861,53.9919
1980-08-05 03:10:57,1,3.475,1.2,-1.5,0.277263,1,1,173934.0,172474.0,1697,0.92676437,2.1631374,63.677826,105.56062,11.7321,377.385,-27.5133,8.47059,53.5858,53.3605
1980-08-05 03:13:39,1,4.6,0.825,-1.3,0.389711,1,1,216636.0,170785.0,1697,0.92677349,2.16294,63.650116,105.56027,12.1009,380.525,-31.0708,5.02251,59.803,53.0986
1980-08-05 03:16:21,1,3.6,1.55,-0.6,0.193649,1,1,196179.0,177058.0,1697,0.92678255,2.1627436,63.626343,105.55992,12.6712,378.013,-29.3781,3.91067,56.9094,54.0649
1980-08-05 03:19:03,-1,nan,nan,nan,nan,1,4,nan,nan,1697,0.92679167,2.1625462,63.602539,105.55956,nan,nan,nan,nan,nan,nan
1980-08-05 03:21:45,1,4.3,0.1,-0.5,1.38778e-17,1,1,263013.0,185865.0,1697,0.92679769,2.1624146,63.574951,105.55933,12.6539,380.801,-33.4856,6.75826,65.8941,55.3932
1980-08-05 03:24:27,-1,nan,nan,nan,nan,1,4,nan,nan,1697,0.92680681,2.1622181,63.551178,105.55898,nan,nan,nan,nan,nan,nan
1980-08-05 03:27:09,1,3.7,1.26667,-0.733333,0.352767,1,1,147260.0,143773.0,1697,0.92681587,2.1620207,63.527374,105.55861,12.1464,377.645,-33.7334,4.15952,49.3061,48.7188
1980-08-05 03:29:51,1,3.1,1.725,-0.7,0.258602,1,1,169082.0,161332.0,1697,0.92682195,2.1618891,63.499786,105.55838,13.0086,371.344,-32.6462,7.16437,52.8332,51.6082
1980-08-05 03:32:33,1,2.86667,1.63333,0.166667,0.509902,1,1,136868.0,145443.0,1697,0.92683107,2.1616926,63.476013,105.55803,13.0016,373.138,-30.164,9.9756,47.5345,49.0009
1980-08-05 03:35:15,1,1.625,1.1,0.4,0.334477,1,1,131233.0,131662.0,1697,0.92684013,2.1614952,63.452209,105.55766,15.2689,368.167,-30.722,8.23925,46.5457,46.6216
1980-08-05 03:37:57,1,2.43333,1.53333,1.56667,0.270801,1,1,133159.0,140192.0,1697,0.92684621,2.1613636,63.424622,105.55743,13.9693,373.194,-28.7777,6.99311,46.8859,48.1082
1980-08-05 03:40:39,1,2.275,1.0,1.425,0.398434,1,1,145923.0,157304.0,1697,0.92685533,2.1611671,63.400848,105.55708,15.0478,372.686,-30.2998,6.2923,49.0816,50.9599
1980-08-05 03:46:03,1,3.425,1.1,1.8,0.319179,1,1,131257.0,130246.0,1697,0.92687351,2.1607733,63.349335,105.55637,13.6017,371.927,-26.91,8.70811,46.55,46.3703
1980-08-05 03:48:45,1,3.86667,0.9,1.8,0.329983,1,1,131021.0,140709.0,1697,0.92687953,2.1606417,63.325684,105.55614,13.5879,369.943,-27.4362,6.42325,46.5081,48.1969
1980-08-05 03:51:27,1,2.43333,0.933333,0.366667,0.316228,1,1,162618.0,149701.0,1697,0.92688864,2.1604443,63.297974,105.55577,14.3085,369.816,-24.192,9.79982,51.8134,49.713
1980-08-05 03:54:09,1,3.23333,0.8,0.2,0.249444,1,1,142180.0,165219.0,1697,0.9268977,2.1602478,63.27417,105.55542,13.707,370.889,-22.7395,6.47705,48.4482,52.2262
1980-08-05 03:56:51,1,2.8,1.6,-0.633333,0.368179,1,1,141974.0,134041.0,1697,0.92690378,2.1601162,63.250519,105.55519,12.085,376.171,-22.6575,8.50895,48.413,47.041
1980-08-05 03:59:33,1,3.56667,1.6,-1.26667,0.751295,1,1,150632.0,147951.0,1697,0.9269129,2.1599188,63.222809,105.55482,11.6888,376.999,-22.4583,3.32965,49.8673,49.4217
1980-08-05 04:02:15,1,4.35,2.025,-2.15,0.248747,1,1,287857.0,144586.0,1697,0.92692196,2.1597223,63.199005,105.55447,12.171,373.869,-25.429,2.06843,68.9361,48.8563
1980-08-05 04:04:57,1,5.05,3.175,-0.2,0.578252,1,1,185372.0,134938.0,1697,0.92692804,2.1595907,63.175323,105.55423,10.1497,386.143,-18.643,-3.94891,55.3197,47.1982
1980-08-05 04:07:39,1,3.075,1.625,0.075,2.31422,1,1,292265.0,169945.0,1697,0.9269371,2.1593943,63.147644,105.55388,12.3557,378.94,-22.0507,1.00562,69.4619,52.9678
1980-08-05 04:10:21,1,-0.2,-0.6,0.4,6.20634e-17,1,1,113246.0,100232.0,1697,0.92694616,2.1591969,63.12384,105.55353,16.8063,371.783,-30.1015,4.725,43.2384,40.6782
1980-08-05 04:13:03,1,0.433333,-0.0666667,0.0,0.371184,1,1,90887.9,112263.0,1697,0.92695522,2.1590004,63.100067,105.55318,16.504,372.974,-29.4406,4.80886,38.7356,43.0503
1980-08-05 04:15:45,1,0.3,-0.35,-1.3,0.304138,1,1,104196.0,104113.0,1697,0.9269613,2.1588688,63.072479,105.55293,16.2001,374.862,-28.3636,5.23294,41.4746,41.4582
1980-08-05 04:18:27,1,0.35,0.375,-0.6,0.423527,1,1,94183.8,97422.3,1697,0.92697036,2.1586723,63.048676,105.55258,16.8325,374.621,-28.0726,-0.0658426,39.4317,40.1039
1980-08-05 04:21:09,1,0.75,0.525,-1.2,0.253722,1,1,97518.9,95189.0,1697,0.92697948,2.1584749,63.024872,105.55222,15.7728,376.062,-27.5877,0.474317,40.1238,39.6416
1980-08-05 04:23:51,1,1.375,0.75,0.2,0.24367,1,1,106673.0,94142.4,1697,0.9269855,2.1583433,62.997314,105.55199,16.1645,377.843,-27.1046,-0.339384,41.9648,39.4231
1980-08-05 04:26:33,1,1.76667,1.3,-0.7,0.298142,1,1,88555.7,91324.6,1697,0.92699456,2.1581469,62.973511,105.55164,16.4462,376.993,-28.5906,1.49285,38.2354,38.8286
1980-08-05 04:29:15,1,1.56667,0.466667,-0.7,0.210819,1,1,92063.4,93346.7,1697,0.92700368,2.1579494,62.949707,105.55127,16.2814,375.437,-31.7097,1.1868,38.9853,39.2561
1980-08-05 04:31:57,1,1.56667,0.466667,-0.7,0.210819,1,1,93729.4,93794.6,1697,0.9270097,2.1578188,62.92215,105.55104,15.912,375.543,-29.587,1.41724,39.3365,39.3502
1980-08-05 04:34:39,1,1.5,0.266667,-0.433333,0.48074,1,1,98076.0,102717.0,1697,0.92701882,2.1576214,62.898346,105.55067,17.2257,376.637,-30.1583,1.68981,40.2383,41.1793
1980-08-05 04:40:03,1,2.425,0.425,-0.475,0.375,1,1,94663.9,93317.7,1697,0.92703694,2.1572275,62.846863,105.54997,16.0105,374.494,-27.7233,3.65359,39.5321,39.25
1980-08-05 04:42:45,1,2.2,0.9,-0.7,1.11022e-16,1,1,92990.1,93488.1,1697,0.92704302,2.1570969,62.823181,105.54973,16.1889,375.097,-27.0064,3.2302,39.1811,39.2858
1980-08-05 04:45:27,1,1.85,0.95,-0.5,0.43589,1,1,94449.6,93911.7,1697,0.92705208,2.1568995,62.795471,105.54938,16.4201,373.336,-26.5778,3.21591,39.4874,39.3748
1980-08-05 04:48:09,1,1.5,0.866667,-0.833333,0.323179,1,1,97083.2,95743.4,1697,0.92706114,2.156703,62.771698,105.54903,16.2246,373.677,-26.5262,5.32114,40.0341,39.7569
1980-08-05 04:50:51,1,0.466667,1.03333,-1.46667,0.424264,1,1,85429.9,95584.0,1697,0.92706722,2.1565714,62.748016,105.54878,14.8912,371.205,-26.3454,2.70456,37.5546,39.7238
1980-08-05 04:53:33,1,0.633333,1.3,-1.6,0.298142,1,1,94110.0,92354.0,1697,0.92707628,2.156374,62.720306,105.54843,16.3684,373.279,-27.9358,4.22491,39.4163,39.0468
1980-08-05 05:01:39,1,1.36667,1.73333,-1.8,0.253859,1,1,108241.0,102804.0,1698,0.92712605,1.9889323,62.571259,105.4736,15.3567,372.256,-27.5781,5.17646,42.272,41.1967
1980-08-05 05:02:13,-1,nan,nan,nan,nan,1,4,nan,nan,1697,0.92710352,2.1557837,62.641113,105.54736,nan,nan,nan,nan,nan,nan
1980-08-05 05:04:55,1,1.075,1.625,-1.575,0.275,1,1,114852.0,90993.9,1697,0.92710954,2.155652,62.617432,105.54712,15.7209,375.749,-27.706,4.85209,43.5438,38.7582
1980-08-05 05:04:56,1,1.075,1.625,-1.575,0.275,1,1,103384.0,93390.0,1697,0.92710954,2.155652,62.617432,105.54712,15.3238,370.507,-28.7626,3.20156,41.3128,39.2652
1980-08-05 05:07:03,1,2.4,2.3,0.5,0.0,1,1,97277.8,96850.1,1697,0.9271186,2.1554556,62.597565,105.54677,17.055,378.296,-20.4288,4.34452,40.0742,39.986
1980-08-05 05:09:43,1,1.875,0.95,-0.3,0.478931,1,1,99028.9,101101.0,1698,0.92715043,1.9883792,62.496063,105.47263,18.6127,374.324,-29.1957,-2.39301,40.4333,40.8541
1980-08-05 05:09:45,1,1.93333,0.9,-0.433333,0.459468,1,1,99474.9,100230.0,1697,0.92712468,2.155324,62.569977,105.54654,17.9219,375.245,-29.1018,0.0306123,40.5242,40.6778
1980-08-05 05:15:07,1,1.16667,1.23333,-2.33333,0.216025,1,1,107453.0,87742.3,1697,0.9271428,2.1549301,62.5224,105.54582,15.9594,375.535,-29.789,0.417936,42.118,38.0594
1980-08-05 05:20:31,1,1.575,1.5,-1.8,0.248747,1,1,94740.7,75702.2,1697,0.92715794,2.1546021,62.471008,105.54523,14.6836,373.093,-30.8935,2.86565,39.5482,35.3518
1980-08-05 05:25:55,1,2.325,2.125,-1.0,0.306186,1,1,98920.6,89132.0,1697,0.92717302,2.154274,62.419647,105.54463,15.8692,372.695,-30.7049,0.163785,40.4112,38.3596
1980-08-05 05:42:09,-1,nan,nan,nan,nan,1,3,nan,nan,1697,0.9272244,2.1531582,62.269196,105.54262,nan,380.452,-18.3845,4.37699,nan,nan
1980-08-05 05:47:33,-1,nan,nan,nan,nan,1,3,nan,nan,1697,0.92723948,2.1528292,62.217804,105.54202,nan,380.378,-17.5681,3.71271,nan,nan
1980-08-05 05:52:57,-1,nan,nan,nan,nan,1,3,nan,nan,1697,0.92725462,2.1525011,62.170349,105.54143,nan,372.033,-26.2532,4.95345,nan,nan
1980-08-05 05:58:21,1,-0.0666667,-1.7,0.833333,0.266667,1,1,118168.0,92800.7,1697,0.92727274,2.1521072,62.118835,105.54071,17.669,372.718,-24.8546,3.18469,44.1679,39.1411
1980-08-05 06:03:45,1,-0.825,-0.8,0.475,0.297909,1,1,91923.2,93092.0,1697,0.92728782,2.1517792,62.067474,105.54012,17.9493,374.975,-25.8267,5.70526,38.9557,39.2025
1980-08-05 06:09:09,1,-0.833333,-1.3,1.33333,0.194365,1,1,91986.3,80287.9,1697,0.92730594,2.1513853,62.019867,105.5394,17.6697,372.84,-27.2048,7.69178,38.969,36.4068
1980-08-05 06:14:33,1,-0.566667,-1.63333,1.33333,0.282843,1,1,87393.0,86973.3,1697,0.92732102,2.1510572,61.968506,105.5388,16.9097,375.207,-26.5946,8.44404,37.9836,37.8923
1980-08-05 06:19:57,1,0.266667,-0.633333,1.63333,0.653197,1,1,81596.4,83378.0,1697,0.9273361,2.1507292,61.917114,105.53821,17.1376,377.127,-26.2571,6.36843,36.7023,37.1008
1980-08-05 06:25:21,1,0.133333,-1.26667,1.9,0.50111,1,1,76151.6,77808.9,1697,0.92735422,2.1503353,61.865631,105.53751,17.6526,375.696,-23.1111,6.24452,35.4566,35.8404
1980-08-05 06:30:45,1,-0.366667,-1.36667,0.8,0.210819,1,1,93462.2,85970.5,1697,0.9273693,2.1500072,61.818176,105.53691,17.355,374.263,-24.7695,6.69938,39.2804,37.6732
1980-08-05 06:36:09,1,1.43333,-0.766667,3.43333,0.416333,1,1,88257.7,88910.8,1697,0.92738736,2.1496134,61.766663,105.53619,16.526,375.848,-26.8103,9.44831,38.1711,38.312
1980-08-05 06:41:33,1,2.6,-1.4,3.4,2.22045e-16,1,1,94684.8,95547.4,1697,0.92740244,2.1492853,61.715302,105.5356,15.8523,372.498,-26.3522,10.6886,39.5365,39.7162
1980-08-05 06:46:57,1,2.3,-1.725,3.6,0.286138,1,1,90238.9,84709.5,1697,0.92741752,2.1489573,61.667816,105.535,15.6193,371.898,-22.38,10.4323,38.5971,37.3959
1980-08-05 06:52:21,1,2.16667,-1.93333,2.2,0.413656,1,1,92394.4,92973.2,1697,0.92743564,2.1485634,61.616333,105.53429,16.0631,375.475,-24.4672,13.6876,39.0554,39.1775
1980-08-05 06:57:45,1,2.83333,-2.26667,1.0,0.380058,1,1,97722.1,104056.0,1697,0.92745072,2.1482353,61.564941,105.53369,15.2117,377.873,-25.6217,15.2698,40.1656,41.4468
1980-08-05 07:03:09,1,1.9,-2.16667,3.4,0.169967,1,1,110983.0,104126.0,1697,0.92746878,2.1478415,61.517365,105.53297,15.3926,378.978,-27.2862,14.1427,42.8042,41.4608
1980-08-05 07:08:33,1,2.275,-3.1,2.8,0.356195,1,1,121802.0,110315.0,1697,0.92748386,2.1475134,61.465973,105.53238,14.6463,377.696,-27.5764,12.3225,44.8421,42.6751
1980-08-05 07:13:57,1,3.475,-3.15,4.1,0.253722,1,1,113935.0,89913.0,1697,0.92749888,2.1471853,61.414612,105.53178,13.2583,378.118,-23.6966,11.6205,43.3697,38.5274
1980-08-05 07:19:21,1,2.96667,-4.93333,1.9,0.210819,1,1,163570.0,85340.2,1697,0.92751694,2.1467915,61.363098,105.53107,13.9299,380.903,-32.383,7.09123,51.9648,37.5349
1980-08-05 07:24:45,1,4.2,-4.4,3.2,0.316228,1,1,156149.0,89314.1,1697,0.92753202,2.1464634,61.315643,105.53047,13.279,383.372,-34.7836,8.37317,50.7723,38.3988
1980-08-05 07:30:09,-1,nan,nan,nan,nan,1,4,nan,nan,1697,0.92755008,2.1460705,61.26413,105.52975,nan,nan,nan,nan,nan,nan
1980-08-05 07:35:33,1,4.73333,-4.4,2.93333,0.266667,1,1,145851.0,60802.6,1697,0.92756516,2.1457424,61.212769,105.52916,11.6601,390.211,-42.0019,8.21142,49.0695,31.6825
1980-08-05 07:40:57,1,4.16667,-4.7,2.13333,0.194365,1,1,144973.0,74201.0,1697,0.92758018,2.1454134,61.165283,105.52856,12.1459,389.193,-37.4747,6.13115,48.9216,34.9996
1980-08-05 07:51:45,1,3.1,-4.7,2.7,0.365148,1,1,126317.0,87445.4,1697,0.92761332,2.1446924,61.062408,105.52725,13.1654,387.272,-39.8965,9.46046,45.6656,37.995
1980-08-05 07:57:09,1,4.1,-4.36667,3.03333,0.5696,1,1,127458.0,79806.4,1697,0.92763138,2.1442986,61.014832,105.52654,12.2482,384.526,-39.6172,9.79319,45.8713,36.2975
1980-08-05 08:02:33,1,6.075,-2.175,2.225,0.23585,1,1,126283.0,76040.7,1697,0.9276464,2.1439705,60.96344,105.52594,11.0815,400.015,-26.8639,3.72793,45.6594,35.4308
1980-08-05 08:07:57,1,5.75,-2.725,3.3,0.290474,1,1,130417.0,90596.0,1697,0.92766148,2.1436424,60.912079,105.52534,11.6645,395.768,-26.5063,6.99024,46.4008,38.6734
1980-08-05 08:13:21,1,4.525,-3.1,4.575,0.684653,1,1,156422.0,73391.8,1697,0.92767948,2.1432486,60.860565,105.52463,10.6331,392.506,-28.2132,19.5356,50.8167,34.8082
1980-08-05 08:18:45,1,2.775,-5.1,2.8,0.34187,1,1,130696.0,83812.3,1697,0.92769456,2.1429205,60.81311,105.52403,11.9433,380.005,-41.617,7.67234,46.4503,37.1973
1980-08-05 08:24:09,1,1.8,-5.83333,1.4,0.169967,1,1,229916.0,92081.9,1697,0.92771256,2.1425276,60.761597,105.52332,12.6933,368.283,-30.6739,4.23987,61.6088,38.9893
1980-08-05 08:29:33,1,0.966667,-5.2,0.733333,0.24037,1,1,146753.0,85839.3,1697,0.92772764,2.1421995,60.710205,105.52271,10.9647,376.58,-46.5623,-2.70008,49.2211,37.6444
1980-08-05 08:34:57,1,3.025,-5.025,1.6,0.372492,1,1,136497.0,84546.2,1697,0.92774266,2.1418715,60.66275,105.52211,11.4595,381.316,-52.8944,4.26362,47.4701,37.3598